DW4839 Weather Reports


time (UTC)temp
F
wind
direction
speed
knots
gust
knots
rain 1hr
in
rain 24hr
in
rain mn
in
humidity
%
barometer
mb
20260510103055 52 341 1.7 3.5 0.00 0.00 0.00 85 1016.7
20260510101551 54 340 1.7 4.3 0.00 0.00 0.00 83 1016.6
20260510100050 55 345 3.5 7.0 0.00 0.00 0.00 81 1016.2
20260510094552 55 11 2.6 5.2 0.00 0.00 0.00 79 1016.2
20260510093053 56 11 1.7 5.2 0.00 0.00 0.00 77 1016.4
20260510091558 57 345 2.6 7.8 0.00 0.00 0.00 76 1016.4
20260510090100 57 339 3.5 7.0 0.00 0.00 0.00 75 1016.2
20260510084556 58 348 3.5 7.0 0.00 0.00 0.00 74 1016.1
20260510083059 58 344 2.6 5.2 0.00 0.00 0.00 73 1016.1
20260510081553 58 333 3.5 7.8 0.00 0.00 0.00 72 1016.1
20260510080059 58 335 2.6 4.3 0.00 0.00 0.00 72 1016.2
20260510074550 58 336 1.7 4.3 0.00 0.00 0.00 72 1016.3
20260510073051 59 347 1.7 4.3 0.00 0.00 0.00 70 1016.3
20260510071550 59 341 2.6 4.3 0.00 0.00 0.00 70 1016.2
20260510070057 59 346 2.6 3.5 0.00 0.00 0.00 68 1016.2
20260510064607 60 342 1.7 5.2 0.00 0.00 0.00 65 1016.2
20260510063052 60 9 2.6 5.2 0.00 0.00 0.00 65 1016.2
20260510061552 61 347 3.5 8.7 0.00 0.00 0.00 63 1016.2
20260510060051 61 338 4.3 7.8 0.00 0.00 0.00 63 1016.2
20260510054549 62 342 3.5 9.6 0.00 0.00 0.00 63 1016.0
20260510053050 62 344 4.3 7.0 0.00 0.00 0.00 62 1016.0
20260510051601 62 330 3.5 7.0 0.00 0.00 0.00 62 1016.0
20260510050055 63 340 2.6 5.2 0.00 0.00 0.00 62 1016.1
20260510044557 63 22 3.5 7.8 0.00 0.00 0.00 61 1015.9
20260510043052 63 360 3.5 7.0 0.00 0.00 0.00 60 1015.9
20260510041604 64 342 2.6 7.0 0.00 0.00 0.00 59 1015.6
20260510040056 64 340 3.5 9.6 0.00 0.00 0.00 57 1015.4
20260510034600 64 352 4.3 7.8 0.00 0.00 0.00 56 1015.3
20260510033054 64 312 2.6 4.3 0.00 0.00 0.00 57 1015.1
20260510031557 65 352 2.6 6.1 0.00 0.00 0.00 55 1015.2
20260510030057 66 352 3.5 7.8 0.00 0.00 0.00 53 1015.2
20260510024553 67 342 2.6 7.0 0.00 0.00 0.00 51 1014.9
20260510023050 67 331 1.7 7.0 0.00 0.00 0.00 50 1015.1
20260510021550 67 345 1.7 5.2 0.00 0.00 0.00 47 1015.1
20260510020051 68 327 0.9 2.6 0.00 0.00 0.00 45 1015.1
20260510014556 69 338 1.7 7.0 0.00 0.00 0.00 41 1015.3
20260510013058 70 344 2.6 5.2 0.00 0.00 0.00 36 1015.4
20260510011555 71 12 1.7 5.2 0.00 0.00 0.00 36 1015.6
20260510010052 71 338 1.7 7.0 0.00 0.00 0.00 36 1015.6
20260510004550 72 344 1.7 3.5 0.00 0.00 0.00 39 1015.7
20260510003059 72 350 0.9 4.3 0.00 0.00 0.00 43 1015.7
20260510001554 72 350 0.9 7.0 0.00 0.00 0.00 36 1016.0
20260510000058 73 344 1.7 3.5 0.00 0.00 0.00 36 1016.1
20260509234605 73 39 2.6 5.2 0.00 0.00 0.00 36 1016.1
20260509233057 73 15 2.6 5.2 0.00 0.00 0.00 35 1016.2
20260509231607 73 32 1.7 7.0 0.00 0.00 0.00 38 1016.3
20260509230103 73 342 2.6 7.0 0.00 0.00 0.00 38 1016.5
20260509224551 73 360 1.7 4.3 0.00 0.00 0.00 40 1016.7
20260509223051 73 46 0.9 4.3 0.00 0.00 0.00 40 1017.1
20260509221554 72 348 0.9 3.5 0.00 0.00 0.00 43 1017.4
20260509220056 72 196 1.7 5.2 0.00 0.00 0.00 42 1017.6
20260509214600 72 223 1.7 9.6 0.00 0.00 0.00 44 1017.7
20260509213054 71 59 2.6 6.1 0.00 0.00 0.00 49 1018.0
20260509211558 70 351 4.3 8.7 0.00 0.00 0.00 51 1017.9
20260509210105 70 11 1.7 7.8 0.00 0.00 0.00 55 1017.8
20260509204556 70 13 2.6 7.0 0.00 0.00 0.00 56 1018.0
20260509203059 69 33 3.5 9.6 0.00 0.00 0.00 54 1018.2
20260509201557 68 351 5.2 10.4 0.00 0.00 0.00 57 1018.5
20260509200059 67 12 6.1 10.4 0.00 0.00 0.00 54 1018.6
20260509194550 66 10 4.3 9.6 0.00 0.00 0.00 59 1018.6
20260509193055 67 350 2.6 10.4 0.00 0.00 0.00 59 1018.9
20260509191555 66 17 3.5 8.7 0.00 0.00 0.00 60 1019.0
20260509190107 65 19 3.5 8.7 0.00 0.00 0.00 61 1019.2
20260509184602 64 339 2.6 7.8 0.00 0.00 0.00 61 1019.3
20260509183056 63 22 5.2 12.2 0.00 0.00 0.00 63 1019.4
20260509181550 63 25 4.3 7.8 0.00 0.00 0.00 66 1019.5
20260509180100 61 352 4.3 7.8 0.00 0.00 0.00 71 1019.5
20260509174555 61 350 2.6 6.1 0.00 0.00 0.00 71 1019.6
20260509173102 59 5 3.5 7.8 0.00 0.00 0.00 73 1019.8
20260509171554 59 36 3.5 9.6 0.00 0.00 0.00 76 1020.1
20260509170104 58 352 4.3 9.6 0.00 0.00 0.00 77 1020.1
20260509164553 57 351 4.3 7.8 0.00 0.00 0.00 79 1020.3
20260509163102 56 23 2.6 7.0 0.00 0.00 0.00 82 1020.6
20260509161555 56 29 2.6 7.0 0.00 0.00 0.00 81 1020.6
20260509160057 55 24 3.5 7.0 0.00 0.00 0.00 81 1020.7
20260509154558 53 344 3.5 6.1 0.00 0.00 0.00 85 1020.6
20260509153050 53 351 3.5 7.0 0.00 0.00 0.00 85 1020.9
20260509151553 51 14 3.5 6.1 0.00 0.00 0.00 86 1021.0
20260509150106 51 343 3.5 5.2 0.00 0.00 0.00 87 1021.2
20260509144600 51 30 1.7 3.5 0.00 0.00 0.00 88 1021.0
20260509143056 50 36 1.7 3.5 0.00 0.00 0.00 89 1020.9
20260509141554 50 26 0.9 2.6 0.00 0.00 0.00 91 1021.0
20260509140104 49 23 1.7 2.6 0.00 0.00 0.00 92 1020.8
20260509134556 48 23 1.7 2.6 0.00 0.00 0.00 92 1020.7
20260509133101 48 360 0.9 1.7 0.00 0.00 0.00 92 1020.8
20260509131551 47 339 1.7 2.6 0.00 0.00 0.00 92 1020.8
20260509130057 46 336 0.9 0.9 0.00 0.00 0.00 91 1020.7
20260509124600 47 336 0.9 1.7 0.00 0.00 0.00 91 1020.9
20260509123104 47 336 0.9 1.7 0.00 0.00 0.00 91 1021.0
20260509121602 48 0 0.9 1.7 0.00 0.00 0.00 91 1020.9
20260509120059 48 330 0.0 1.7 0.00 0.00 0.00 90 1020.9
20260509114603 48 330 1.7 2.6 0.00 0.00 0.00 91 1020.9
20260509113104 48 10 1.7 4.3 0.00 0.00 0.00 90 1021.1
20260509111557 48 352 2.6 4.3 0.00 0.00 0.00 90 1021.3
20260509110052 48 352 2.6 4.3 0.00 0.00 0.00 90 1021.4
20260509104555 49 330 3.5 5.2 0.00 0.00 0.00 89 1021.5